Home > Weather > Wittlich > Past weeks

Flag for Germany Past Weather in Wittlich, Rhineland-Palatinate, Germany — Yesterday and Last 2 Weeks

Now
57 °F

Low clouds.


Feels Like: 55 °F
Forecast: 54 / 62 °F
Wind: 8 mph from South

Location: Spangdahlem

Current Time: May 30, 2016 at 8:36:55 PM

Latest Report: May 30, 2016 at 7:58 PM


Visibility: N/A

Pressure: 29.59 "Hg

Humidity: 98%

Dew Point: 56 °F

Location of WittlichLocation

Past Weather in Wittlich — Graph

°F

Wittlich Temperature Yesterday

Maximum temperature yesterday: 68 °F (at 4:58 PM)
Minimum temperature yesterday: 55 °F (at 12:58 AM)
Average temperature yesterday: 62 °F

High & Low Weather Summary for the Past Weeks

 TemperatureHumidityPressure
High72 °F (May 28, 2:58 PM)100% (May 20, 7:03 AM)30.15 "Hg (May 20, 7:03 AM)
Low42 °F (May 17, 5:58 AM)44% (May 17, 11:58 AM)29.55 "Hg (May 30, 7:58 AM)
Average55 °F80%29.90 "Hg
* Reported May 15 7:58 PM — May 30 7:04 PM, Wittlich, Weather by CustomWeather, © 2016

Note: Actual official high and low records may vary slightly from our data, if they occured in-between our weather recording intervals... More about our weather records

Advertising

Wittlich Weather History for the Previous 24 Hours

Scroll right to see more
 ConditionsComfort  
Time TempWeatherWind HumidityBarometerVisibility
7:04 PM
Mon, May 30
57 °FLow clouds.10 mph100%29.61 "HgN/A
5:58 PM60 °FRain. Fog.9 mph96%29.56 "Hg5 mi
5:03 PM59 °FHeavy rain. Fog.8 mph100%29.61 "Hg2 mi
4:58 PM59 °FHeavy rain. Fog.6 mph98%29.57 "Hg2 mi
4:04 PM61 °FHeavy rain. Fog.3 mph94%29.60 "Hg4 mi
3:00 PM63 °FBroken clouds.7 mph94%29.59 "HgN/A
2:04 PM61 °FHeavy rain. Fog.8 mph94%29.60 "Hg2 mi
1:58 PM61 °FLight rain. Fog.7 mph94%29.55 "Hg3 mi
1:01 PM63 °FBroken clouds.7 mph94%29.59 "HgN/A
11:58 AM60 °FRain. Fog.8 mph95%29.55 "Hg3 mi
10:58 AM61 °FOvercast.7 mph94%29.55 "HgN/A
9:59 AM59 °FDrizzle. Mostly cloudy.10 mph100%29.59 "HgN/A
8:58 AM59 °FLight rain. Low clouds.12 mph94%29.55 "HgN/A
8:04 AM57 °FLight rain. Cloudy.6 mph100%29.60 "HgN/A
7:58 AM57 °FLight rain. Fog.6 mph100%29.55 "Hg6 mi
6:58 AM57 °FRain. Fog.7 mph100%29.56 "Hg2 mi
6:01 AM59 °FHeavy rain. Fog.8 mph94%29.61 "Hg2 mi
5:58 AM58 °FRain. Fog.7 mph98%29.55 "Hg1 mi
5:00 AM59 °FHeavy rain. Fog.5 mph100%29.64 "Hg2 mi
4:04 AM59 °FRain. Fog.5 mph100%29.65 "Hg1 mi
3:58 AM59 °FRain. Fog.6 mph100%29.59 "Hg1 mi
3:02 AM59 °FThunderstorms. Fog.5 mph100%29.67 "Hg1 mi
1:58 AM60 °FDrizzle. Fog.2 mph97%29.64 "Hg1 mi
1:04 AM59 °FDrizzle. Fog.3 mph100%29.70 "Hg3 mi
12:58 AM59 °FLight rain. Passing clouds.No wind100%29.65 "HgN/A
11:58 PM
Sun, May 29
59 °FRain. Fog.2 mph100%29.67 "Hg6 mi
11:03 PM61 °FLight rain. Passing clouds.3 mph94%29.73 "HgN/A
9:58 PM63 °FPartly sunny.No wind86%29.67 "HgN/A
8:58 PM63 °FPartly sunny.3 mph87%29.65 "HgN/A
Weather by CustomWeather, © 2016

See weather overviewHow to use our weather pages